Regional Weather Roundup
Issued by NWS Sterling, VA

Home | Current Version | Previous Version | Graphics & Text | Print | Product List | Glossary On
Versions: 1 2 3 4 5 6 7 8 9 10 11 12 13 14 15 16 17 18 19 20 21 22 23 24 25 26 27 28 29 30 31 32 33 34 35 36 37 38 39 40 41 42 43 44 45 46 47 48 49 50
000
ASUS41 KLWX 230711
RWRLWX

REGIONAL WEATHER ROUNDUP
NATIONAL WEATHER SERVICE BALTIMORE MD/WASHINGTON DC
300 AM EDT MON OCT 23 2017

Note: "FAIR" indicates few or no clouds below 12,000 feet
with no significant weather and/or obstructions to visibility.
 TC=TEMPERATURE CELSIUS

 * =Non NWS site. Station does not report precipitation (e.g. rain,
    snow, etc.), thunder, or fog.

DCZ001-MDZ009-015-VAZ040>042-051-053>054-230800-
WASHINGTON METRO

CITY           SKY/WX    TMP DP  RH WIND       PRES   REMARKS
WASHINGTON NAT PTCLDY    61  60  97 NE5       30.28F
DULLES         MOCLDY    53  53 100 CALM      30.27F
ANDREWS AFB    FOG       59  59 100 CALM      30.26F VSB 3/4
FT BELVOIR     CLOUDY    53  52  95 CALM      30.27F
QUANTICO       PTCLDY    59  58  96 CALM      30.28F
COLLEGE PARK*  MOCLDY    52  51  95 CALM      30.28S
LEESBURG*      PTCLDY    54  54 100 N5        30.28S
MANASSAS*      PTCLDY    53  52  96 CALM      30.28S
GAITHERSBURG*  PTCLDY    56  55  97 CALM      30.28F

$$

MDZ006>007-011-014-230800-
BALTIMORE METRO

CITY           SKY/WX    TMP DP  RH WIND       PRES   REMARKS
BWI AIRPORT    CLOUDY    56  56 100 CALM      30.28F
MD SCIENCE CTR   N/A     62  59  90 MISG      30.29F
MARTIN STATE   CLOUDY    55  55 100 CALM      30.31S
ANNAPOLIS      PTCLDY    65  65 100 E5        30.27F
FORT MEADE*    CLOUDY    52  52 100 CALM      30.31S

$$

MDZ012-015-019>023-230800-
MARYLAND EASTERN SHORE

CITY           SKY/WX    TMP DP  RH WIND       PRES   REMARKS
OCEAN CITY     MOCLDY    67  66  97 SE7       30.30F
SALISBURY      FOG       61  61 100 E3        30.29F VSB 1/4
CAMBRIDGE*     FOG       55  55 100 CALM      30.29S VSB 3/4
EASTON*        CLOUDY    59  57  95 CALM      30.32F FOG

$$

MDZ017>025-230800-
SOUTHERN MARYLAND

CITY           SKY/WX    TMP DP  RH WIND       PRES   REMARKS
PATUXENT RIVER CLOUDY    65  64  97 SE5       30.27F
ST INIGOES     CLEAR     58  57  97 E3        30.27S
LEONARDTOWN*   NOT AVBL

$$

MDZ003>005-230800-
NORTH CENTRAL MARYLAND

CITY           SKY/WX    TMP DP  RH WIND       PRES   REMARKS
FREDERICK*     CLOUDY    52  52 100 CALM      30.30F
HAGERSTOWN APT CLOUDY    59  54  83 SE5       30.26S
WESTMINSTER*   CLOUDY    59  57  94 SE8       30.28F FOG

$$

MDZ501>502-230800-
WESTERN MARYLAND

CITY           SKY/WX    TMP DP  RH WIND       PRES   REMARKS
OAKLAND*       CLOUDY    52  50  93 SE14      30.19F
CUMBERLAND*    CLOUDY    59  54  82 CALM      30.26F

$$

VAZ025>031-230800-
SHENANDOAH VALLEY

CITY           SKY/WX    TMP DP  RH WIND       PRES   REMARKS
WINCHESTER*    PTCLDY    57  54  88 SE6       30.26R
FRONT ROYAL*   PTCLDY    61  55  82 W3        30.25S
LURAY*         PTCLDY    57  54  88 SW3       30.26S
NEW MARKET*    PTCLDY    51  50  94 CALM      30.24F
STAUNTON*      PTCLDY    60  55  81 S5        30.27F
WAYNESBORO*    PTCLDY    55  54  97 S6        30.26F

$$

WVZ021-048>050-054>055-230800-
EASTERN WEST VIRGINIA PANHANDLE

CITY           SKY/WX    TMP DP  RH WIND       PRES   REMARKS
MARTINSBURG    PTCLDY    57  53  86 VRB3      30.25S
PETERSBURG*    CLOUDY    48  47  97 CALM      30.22F

$$

VAZ036>039-050-230800-
CENTRAL FOOTHILLS

CITY           SKY/WX    TMP DP  RH WIND       PRES   REMARKS
CHARLOTTESVILL CLOUDY    56  53  90 CALM      30.26F FOG
CULPEPER*      FOG       51  50  94 CALM      30.28S VSB 1/2
ORANGE*        PTCLDY    50  50 100 CALM      30.27S
GORDONSVILLE*  CLOUDY    52  52 100 CALM      30.26F
WARRENTON*     FOG       53  50  91 CALM      30.27S VSB 1/2

$$

VAZ055>057-230800-
NORTH AND CENTRAL PIEDMONT

CITY           SKY/WX    TMP DP  RH WIND       PRES   REMARKS
FREDERICKSBRG* PTCLDY    55  55 100 CALM      30.26S
STAFFORD*      CLEAR     51  51 100 CALM      30.31S FOG

$$

NCZ024-NYZ072-PAZ021-071-VAZ022-071-230800-
OTHER REGIONAL OBSERVATIONS

CITY           SKY/WX    TMP DP  RH WIND       PRES   REMARKS
NEW YORK CITY  MOCLDY    62  59  90 S5        30.36F
PHILADELPHIA   FOG       61  59  93 NE3       30.32S VSB 1
PITTSBURGH     MOCLDY    61  50  67 SE7       30.13F
ROANOKE        CLOUDY    61  55  81 CALM      30.25F
RICHMOND       CLOUDY    60  60 100 CALM      30.27R FOG
RALEIGH        MOCLDY    63  62  97 E5        30.23F

$$

ANZ530>537-230800-
MARINE OBSERVATIONS

STATION/POSITION TIME  TEMP    WIND        PRES
                       AIR SEA DIR/SP/G
                 (UTC) (F)     (DEG/KT/KT) (MB)
THOMAS PT LIGHT  0700   64 68  130/  7/  8   N/A
BALT KEY BRIDGE  0648   60      40/  5/  6 1025.4F
COVE POINT       0648   66     160/  9/ 10 1026.0F
LEWISETTA        0648   65 67  150/  3/  4 1024.9F
SOLOMONS ISLAND  0648   66 69  120/  3/  3 1024.8F
PINEY POINT      0636          160/  8/  9   N/A

$$




USA.gov is the U.S. government's official web portal to all federal, state and local government web resources and services.